Location: Unspecified
(0.0000°N, 0.0000°E)
Time: 21:27:27
(UTC+01:00)

BREEZE-M DEB (TANK) - Visible Passes

Search period start: 10 December 2016 00:00
Search period end: 20 December 2016 00:00
Orbit: 318 x 16346 km, 49.5° (Epoch: 10 December)

Date Brightness Start Highest point End Pass type
(mag) Time Alt. Az. Time Alt. Az. Time Alt. Az.
10 Dec 8.0 05:49:18 10° NNW 08:08:33 35° ENE 09:18:41 10° ESE visible
11 Dec 8.2 06:32:48 10° NNW 08:57:10 49° ENE 10:06:17 10° SE visible
14 Dec 7.9 03:25:32 10° N 03:29:04 10° N 03:33:27 10° NNE visible
15 Dec 7.9 04:06:47 10° N 06:09:30 16° ENE 07:08:52 10° E visible
16 Dec 8.0 04:49:09 10° N 07:01:19 28° ENE 08:12:15 10° ESE visible
17 Dec 8.1 05:31:45 10° NNW 07:49:40 41° ENE 09:02:46 10° ESE visible
18 Dec 8.3 06:14:39 10° NNW 08:36:46 56° ENE 09:48:56 10° SE visible
